Time,TemperatureF,DewpointF,PressureIn,WindDirection,WindDirectionDegrees,WindSpeedMPH,WindSpeedGustMPH,Humidity,HourlyPrecipIn,Conditions,Clouds,dailyrainin,SoftwareType,DateUTC
2013-02-23 00:01:00,9.4,6.3,30.10,West,279,1.0,3.0,87,0.00,,,0.00,Wunderground v.1.15,2013-02-23 06:01:00,
2013-02-23 00:06:00,9.3,6.2,30.10,West,279,2.0,3.0,87,0.00,,,0.00,Wunderground v.1.15,2013-02-23 06:06:00,
2013-02-23 00:12:00,9.0,6.0,30.10,West,279,1.0,3.0,86,0.00,,,0.00,weatherlink.com 1.10,2013-02-23 06:12:00,
2013-02-23 00:17:00,8.9,5.6,30.10,West,279,1.0,2.0,86,0.00,,,0.00,Wunderground v.1.15,2013-02-23 06:17:00,
2013-02-23 00:23:00,8.8,5.5,30.10,West,279,1.0,1.0,86,0.00,,,0.00,Wunderground v.1.15,2013-02-23 06:23:00,
2013-02-23 00:29:00,9.0,5.9,30.10,West,279,0.0,1.0,87,0.00,,,0.00,Wunderground v.1.15,2013-02-23 06:29:00,
2013-02-23 00:35:00,8.9,5.6,30.10,West,279,0.0,1.0,86,0.00,,,0.00,Wunderground v.1.15,2013-02-23 06:35:00,
2013-02-23 00:41:00,8.4,5.1,30.09,West,269,1.0,2.0,86,0.00,,,0.00,Wunderground v.1.15,2013-02-23 06:41:00,
2013-02-23 00:47:00,8.2,4.9,30.09,West,268,2.0,3.0,86,0.00,,,0.00,Wunderground v.1.15,2013-02-23 06:47:00,
2013-02-23 00:53:00,8.6,5.3,30.10,West,268,2.0,2.0,86,0.00,,,0.00,Wunderground v.1.15,2013-02-23 06:53:00,
2013-02-23 00:59:00,8.7,5.4,30.10,West,270,3.0,4.0,86,0.00,,,0.00,Wunderground v.1.15,2013-02-23 06:59:00,
2013-02-23 01:05:00,8.7,5.4,30.09,West,271,3.0,4.0,86,0.00,,,0.00,Wunderground v.1.15,2013-02-23 07:05:00,
2013-02-23 01:11:00,8.5,5.2,30.09,West,278,2.0,3.0,86,0.00,,,0.00,Wunderground v.1.15,2013-02-23 07:11:00,
2013-02-23 01:20:00,8.2,4.9,30.09,West,278,2.0,2.0,86,0.00,,,0.00,Wunderground v.1.15,2013-02-23 07:20:00,
2013-02-23 01:26:00,8.2,4.9,30.09,West,278,1.0,2.0,86,0.00,,,0.00,Wunderground v.1.15,2013-02-23 07:26:00,
2013-02-23 01:33:00,8.1,4.8,30.09,West,278,1.0,2.0,86,0.00,,,0.00,Wunderground v.1.15,2013-02-23 07:33:00,
2013-02-23 01:39:00,8.0,4.7,30.09,West,277,1.0,2.0,86,0.00,,,0.00,Wunderground v.1.15,2013-02-23 07:39:00,
2013-02-23 01:44:00,8.1,4.8,30.09,West,278,1.0,1.0,86,0.00,,,0.00,Wunderground v.1.15,2013-02-23 07:44:00,
2013-02-23 01:49:00,8.1,4.8,30.08,West,278,1.0,2.0,86,0.00,,,0.00,Wunderground v.1.15,2013-02-23 07:49:00,
2013-02-23 01:54:00,8.1,4.8,30.08,West,277,2.0,2.0,86,0.00,,,0.00,Wunderground v.1.15,2013-02-23 07:54:00,
2013-02-23 02:00:00,7.9,4.6,30.09,WSW,254,2.0,4.0,86,0.00,,,0.00,Wunderground v.1.15,2013-02-23 08:00:00,
2013-02-23 02:06:00,8.1,4.8,30.09,West,265,3.0,4.0,86,0.00,,,0.00,Wunderground v.1.15,2013-02-23 08:06:00,
2013-02-23 02:12:00,8.3,5.0,30.09,West,261,3.0,4.0,86,0.00,,,0.00,Wunderground v.1.15,2013-02-23 08:12:00,
2013-02-23 02:18:00,8.3,5.0,30.09,WSW,252,3.0,5.0,86,0.00,,,0.00,Wunderground v.1.15,2013-02-23 08:18:00,
2013-02-23 02:23:00,8.3,5.0,30.09,West,260,3.0,4.0,86,0.00,,,0.00,Wunderground v.1.15,2013-02-23 08:23:00,
2013-02-23 02:29:00,8.4,5.0,30.09,WSW,256,3.0,5.0,86,0.00,,,0.00,weatherlink.com 1.10,2013-02-23 08:29:00,
2013-02-23 02:34:00,8.5,5.2,30.09,WSW,254,3.0,4.0,86,0.00,,,0.00,Wunderground v.1.15,2013-02-23 08:34:00,
2013-02-23 02:39:00,8.5,5.2,30.08,West,260,3.0,4.0,86,0.00,,,0.00,Wunderground v.1.15,2013-02-23 08:39:00,
2013-02-23 02:45:00,8.4,5.1,30.08,West,266,2.0,4.0,86,0.00,,,0.00,Wunderground v.1.15,2013-02-23 08:45:00,
2013-02-23 02:50:00,8.2,4.9,30.08,West,265,2.0,2.0,86,0.00,,,0.00,Wunderground v.1.15,2013-02-23 08:50:00,
2013-02-23 02:55:00,8.1,4.8,30.08,West,266,2.0,2.0,86,0.00,,,0.00,Wunderground v.1.15,2013-02-23 08:55:00,
2013-02-23 03:01:00,7.7,4.4,30.07,West,266,2.0,2.0,86,0.00,,,0.00,Wunderground v.1.15,2013-02-23 09:01:00,
2013-02-23 03:07:00,7.6,4.3,30.07,West,265,1.0,2.0,86,0.00,,,0.00,Wunderground v.1.15,2013-02-23 09:07:00,
2013-02-23 03:13:00,7.5,4.0,30.07,West,265,3.0,3.0,86,0.00,,,0.00,weatherlink.com 1.10,2013-02-23 09:13:00,
2013-02-23 03:18:00,7.5,4.2,30.07,West,260,2.0,2.0,86,0.00,,,0.00,Wunderground v.1.15,2013-02-23 09:18:00,
2013-02-23 03:24:00,7.5,4.2,30.07,West,260,2.0,2.0,86,0.00,,,0.00,Wunderground v.1.15,2013-02-23 09:24:00,
2013-02-23 03:29:00,7.4,4.0,30.07,West,260,0.0,2.0,86,0.00,,,0.00,weatherlink.com 1.10,2013-02-23 09:29:00,
2013-02-23 03:35:00,7.3,4.0,30.07,West,260,0.0,1.0,86,0.00,,,0.00,Wunderground v.1.15,2013-02-23 09:35:00,
2013-02-23 03:40:00,7.4,4.1,30.07,West,260,0.0,0.0,86,0.00,,,0.00,Wunderground v.1.15,2013-02-23 09:40:00,
2013-02-23 03:46:00,7.2,3.9,30.07,West,260,0.0,0.0,86,0.00,,,0.00,Wunderground v.1.15,2013-02-23 09:46:00,
2013-02-23 03:53:00,7.1,3.8,30.06,West,261,1.0,1.0,86,0.00,,,0.00,Wunderground v.1.15,2013-02-23 09:53:00,
2013-02-23 03:58:00,7.1,4.0,30.06,West,260,2.0,2.0,86,0.00,,,0.00,weatherlink.com 1.10,2013-02-23 09:58:00,
2013-02-23 04:04:00,7.0,3.7,30.06,West,261,1.0,2.0,86,0.00,,,0.00,Wunderground v.1.15,2013-02-23 10:04:00,
2013-02-23 04:10:00,7.1,3.8,30.06,West,261,1.0,1.0,86,0.00,,,0.00,Wunderground v.1.15,2013-02-23 10:10:00,
2013-02-23 04:15:00,7.1,3.8,30.06,West,261,1.0,1.0,86,0.00,,,0.00,Wunderground v.1.15,2013-02-23 10:15:00,
2013-02-23 04:21:00,7.2,3.9,30.06,WSW,257,1.0,1.0,86,0.00,,,0.00,Wunderground v.1.15,2013-02-23 10:21:00,
2013-02-23 04:27:00,7.3,4.0,30.06,WSW,257,0.0,1.0,86,0.00,,,0.00,Wunderground v.1.15,2013-02-23 10:27:00,
2013-02-23 04:33:00,7.4,4.1,30.05,WSW,257,0.0,1.0,86,0.00,,,0.00,Wunderground v.1.15,2013-02-23 10:33:00,
2013-02-23 04:38:00,7.6,4.3,30.05,WSW,257,0.0,1.0,86,0.00,,,0.00,Wunderground v.1.15,2013-02-23 10:38:00,
2013-02-23 04:44:00,7.6,4.0,30.05,West,265,3.0,4.0,86,0.00,,,0.00,weatherlink.com 1.10,2013-02-23 10:44:00,
2013-02-23 04:49:00,7.6,4.3,30.05,WSW,256,2.0,4.0,86,0.00,,,0.00,Wunderground v.1.15,2013-02-23 10:49:00,
2013-02-23 04:54:00,7.6,4.3,30.05,West,259,2.0,3.0,86,0.00,,,0.00,Wunderground v.1.15,2013-02-23 10:54:00,
2013-02-23 05:00:00,7.6,4.3,30.05,WSW,258,2.0,2.0,86,0.00,,,0.00,Wunderground v.1.15,2013-02-23 11:00:00,
2013-02-23 05:06:00,7.5,4.2,30.05,WSW,258,1.0,2.0,86,0.00,,,0.00,Wunderground v.1.15,2013-02-23 11:06:00,
2013-02-23 05:12:00,7.6,4.3,30.05,West,259,1.0,2.0,86,0.00,,,0.00,Wunderground v.1.15,2013-02-23 11:12:00,
2013-02-23 05:20:00,7.5,4.2,30.05,West,259,1.0,1.0,86,0.00,,,0.00,Wunderground v.1.15,2013-02-23 11:20:00,
2013-02-23 05:25:00,7.3,4.0,30.05,West,259,1.0,1.0,86,0.00,,,0.00,Wunderground v.1.15,2013-02-23 11:25:00,
2013-02-23 05:30:00,7.0,3.7,30.05,West,259,1.0,2.0,86,0.00,,,0.00,Wunderground v.1.15,2013-02-23 11:30:00,
2013-02-23 05:36:00,6.9,3.6,30.05,West,260,1.0,2.0,86,0.00,,,0.00,Wunderground v.1.15,2013-02-23 11:36:00,
2013-02-23 05:41:00,7.0,3.7,30.05,West,261,1.0,2.0,86,0.00,,,0.00,Wunderground v.1.15,2013-02-23 11:41:00,
2013-02-23 05:46:00,7.2,3.9,30.05,West,265,2.0,3.0,86,0.00,,,0.00,Wunderground v.1.15,2013-02-23 11:46:00,
2013-02-23 05:52:00,7.6,4.3,30.05,West,261,3.0,3.0,86,0.00,,,0.00,Wunderground v.1.15,2013-02-23 11:52:00,
2013-02-23 05:58:00,7.9,4.6,30.05,West,260,3.0,4.0,86,0.00,,,0.00,Wunderground v.1.15,2013-02-23 11:58:00,
2013-02-23 06:04:00,8.1,4.8,30.04,West,259,2.0,3.0,86,0.00,,,0.00,Wunderground v.1.15,2013-02-23 12:04:00,
2013-02-23 06:10:00,8.1,4.8,30.05,West,259,1.0,1.0,86,0.00,,,0.00,Wunderground v.1.15,2013-02-23 12:10:00,
2013-02-23 06:15:00,8.0,4.7,30.04,West,259,1.0,2.0,86,0.00,,,0.00,Wunderground v.1.15,2013-02-23 12:15:00,
2013-02-23 06:20:00,7.8,4.5,30.04,West,259,0.0,0.0,86,0.00,,,0.00,Wunderground v.1.15,2013-02-23 12:20:00,
2013-02-23 06:25:00,7.9,4.6,30.04,West,259,0.0,0.0,86,0.00,,,0.00,Wunderground v.1.15,2013-02-23 12:25:00,
2013-02-23 06:31:00,8.0,4.7,30.05,West,259,0.0,2.0,86,0.00,,,0.00,Wunderground v.1.15,2013-02-23 12:31:00,
2013-02-23 06:36:00,8.1,4.8,30.05,West,260,0.0,2.0,86,0.00,,,0.00,Wunderground v.1.15,2013-02-23 12:36:00,
2013-02-23 06:41:00,8.1,4.8,30.05,West,260,1.0,1.0,86,0.00,,,0.00,Wunderground v.1.15,2013-02-23 12:41:00,
2013-02-23 06:46:00,8.1,4.8,30.04,West,260,1.0,2.0,86,0.00,,,0.00,Wunderground v.1.15,2013-02-23 12:46:00,
2013-02-23 06:51:00,7.9,4.6,30.04,West,261,1.0,3.0,86,0.00,,,0.00,Wunderground v.1.15,2013-02-23 12:51:00,
2013-02-23 06:57:00,7.7,4.4,30.04,West,262,2.0,3.0,86,0.00,,,0.00,Wunderground v.1.15,2013-02-23 12:57:00,
2013-02-23 07:02:00,7.5,4.2,30.04,WSW,255,2.0,3.0,86,0.00,,,0.00,Wunderground v.1.15,2013-02-23 13:02:00,
2013-02-23 07:08:00,7.5,4.2,30.04,WSW,254,2.0,3.0,86,0.00,,,0.00,Wunderground v.1.15,2013-02-23 13:08:00,
2013-02-23 07:14:00,7.5,4.0,30.04,WSW,245,2.0,3.0,86,0.00,,,0.00,weatherlink.com 1.10,2013-02-23 13:14:00,
2013-02-23 07:20:00,7.6,4.3,30.04,WSW,254,2.0,3.0,86,0.00,,,0.00,Wunderground v.1.15,2013-02-23 13:20:00,
2013-02-23 07:26:00,7.9,4.6,30.04,WSW,248,2.0,4.0,86,0.00,,,0.00,Wunderground v.1.15,2013-02-23 13:26:00,
2013-02-23 07:32:00,8.3,5.0,30.04,WSW,250,3.0,3.0,86,0.00,,,0.00,Wunderground v.1.15,2013-02-23 13:32:00,
2013-02-23 07:37:00,8.7,5.4,30.03,WSW,243,3.0,4.0,86,0.00,,,0.00,Wunderground v.1.15,2013-02-23 13:37:00,
2013-02-23 07:43:00,9.0,5.7,30.03,WSW,245,3.0,3.0,86,0.00,,,0.00,Wunderground v.1.15,2013-02-23 13:43:00,
2013-02-23 07:48:00,9.3,6.2,30.03,WSW,246,1.0,3.0,87,0.00,,,0.00,Wunderground v.1.15,2013-02-23 13:48:00,
2013-02-23 07:53:00,9.5,6.4,30.03,WSW,247,0.0,1.0,87,0.00,,,0.00,Wunderground v.1.15,2013-02-23 13:53:00,
2013-02-23 07:58:00,9.9,6.8,30.03,WSW,246,0.0,1.0,87,0.00,,,0.00,Wunderground v.1.15,2013-02-23 13:58:00,
2013-02-23 08:04:00,10.1,7.0,30.03,WSW,246,0.0,1.0,87,0.00,,,0.00,Wunderground v.1.15,2013-02-23 14:04:00,
2013-02-23 08:10:00,10.5,7.4,30.03,WSW,247,0.0,0.0,87,0.00,,,0.00,Wunderground v.1.15,2013-02-23 14:10:00,
2013-02-23 08:16:00,10.9,7.8,30.02,WSW,246,0.0,0.0,87,0.00,,,0.00,Wunderground v.1.15,2013-02-23 14:16:00,
2013-02-23 08:22:00,11.4,8.3,30.02,WSW,246,0.0,2.0,87,0.00,,,0.00,Wunderground v.1.15,2013-02-23 14:22:00,
2013-02-23 08:29:00,12.1,9.2,30.02,SW,221,1.0,2.0,88,0.00,,,0.00,Wunderground v.1.15,2013-02-23 14:29:00,
2013-02-23 08:36:00,12.5,9.6,30.02,SW,217,2.0,3.0,88,0.00,,,0.00,Wunderground v.1.15,2013-02-23 14:36:00,
2013-02-23 08:41:00,12.7,9.8,30.02,SW,219,2.0,3.0,88,0.00,,,0.00,Wunderground v.1.15,2013-02-23 14:41:00,
2013-02-23 08:46:00,13.0,10.1,30.02,SW,217,2.0,3.0,88,0.00,,,0.00,Wunderground v.1.15,2013-02-23 14:46:00,
2013-02-23 08:53:00,13.6,10.7,30.02,SW,215,2.0,2.0,88,0.00,,,0.00,Wunderground v.1.15,2013-02-23 14:53:00,
2013-02-23 10:14:00,17.8,15.1,30.02,SW,214,8.0,11.0,89,0.00,,,0.00,Wunderground v.1.15,2013-02-23 16:14:00,
2013-02-23 10:20:00,18.0,15.3,30.02,WSW,241,8.0,10.0,89,0.00,,,0.00,Wunderground v.1.15,2013-02-23 16:20:00,
2013-02-23 10:26:00,18.1,15.4,30.02,WSW,242,8.0,11.0,89,0.00,,,0.00,Wunderground v.1.15,2013-02-23 16:26:00,
2013-02-23 10:32:00,18.5,15.8,30.02,WSW,242,8.0,8.0,89,0.00,,,0.00,Wunderground v.1.15,2013-02-23 16:32:00,
2013-02-23 10:37:00,19.0,16.3,30.02,WSW,255,6.0,8.0,89,0.00,,,0.00,Wunderground v.1.15,2013-02-23 16:37:00,
2013-02-23 10:42:00,19.5,16.8,30.01,SW,221,7.0,8.0,89,0.00,,,0.00,Wunderground v.1.15,2013-02-23 16:42:00,
2013-02-23 10:48:00,19.7,17.0,30.01,SW,232,8.0,13.0,89,0.00,,,0.00,Wunderground v.1.15,2013-02-23 16:48:00,
2013-02-23 10:54:00,19.8,17.1,30.01,SW,232,10.0,14.0,89,0.00,,,0.00,Wunderground v.1.15,2013-02-23 16:54:00,
2013-02-23 11:00:00,19.9,17.2,30.01,SW,227,11.0,11.0,89,0.00,,,0.00,Wunderground v.1.15,2013-02-23 17:00:00,
2013-02-23 11:06:00,20.3,17.6,30.01,SW,227,10.0,11.0,89,0.00,,,0.00,Wunderground v.1.15,2013-02-23 17:06:00,
2013-02-23 11:11:00,20.8,18.3,30.01,WSW,244,8.0,9.0,90,0.00,,,0.00,Wunderground v.1.15,2013-02-23 17:11:00,
2013-02-23 11:20:00,21.3,18.8,30.01,SW,229,6.0,7.0,90,0.00,,,0.00,Wunderground v.1.15,2013-02-23 17:20:00,
2013-02-23 11:26:00,22.5,20.0,30.01,SW,226,6.0,9.0,90,0.00,,,0.00,Wunderground v.1.15,2013-02-23 17:26:00,
2013-02-23 11:31:00,22.9,20.4,30.01,WSW,245,6.0,7.0,90,0.00,,,0.00,Wunderground v.1.15,2013-02-23 17:31:00,
2013-02-23 11:36:00,23.2,20.7,30.01,WSW,248,7.0,9.0,90,0.00,,,0.00,Wunderground v.1.15,2013-02-23 17:36:00,
2013-02-23 11:42:00,23.6,21.1,30.01,SW,230,7.0,7.0,90,0.00,,,0.00,Wunderground v.1.15,2013-02-23 17:42:00,
2013-02-23 11:48:00,24.2,22.0,30.01,SW,217,6.0,8.0,91,0.00,,,0.00,Wunderground v.1.15,2013-02-23 17:48:00,
2013-02-23 11:54:00,24.7,22.4,30.01,SW,235,5.0,6.0,91,0.00,,,0.00,Wunderground v.1.15,2013-02-23 17:54:00,
2013-02-23 12:00:00,25.5,23.0,30.01,SSW,207,5.0,7.0,91,0.00,,,0.00,weatherlink.com 1.10,2013-02-23 18:00:00,
2013-02-23 12:05:00,25.9,23.6,30.00,WSW,238,5.0,8.0,91,0.00,,,0.00,Wunderground v.1.15,2013-02-23 18:05:00,
2013-02-23 12:11:00,26.0,23.7,30.00,WSW,244,5.0,6.0,91,0.00,,,0.00,Wunderground v.1.15,2013-02-23 18:11:00,
2013-02-23 12:16:00,26.1,23.8,30.00,WSW,249,5.0,7.0,91,0.00,,,0.00,Wunderground v.1.15,2013-02-23 18:16:00,
2013-02-23 12:22:00,26.3,24.0,30.00,SW,235,5.0,6.0,91,0.00,,,0.00,Wunderground v.1.15,2013-02-23 18:22:00,
2013-02-23 12:27:00,26.6,24.3,30.00,WSW,252,5.0,7.0,91,0.00,,,0.00,Wunderground v.1.15,2013-02-23 18:27:00,
2013-02-23 12:33:00,26.7,24.4,29.99,SW,228,5.0,6.0,91,0.00,,,0.00,Wunderground v.1.15,2013-02-23 18:33:00,
2013-02-23 12:38:00,27.2,24.9,29.99,WSW,241,5.0,7.0,91,0.00,,,0.00,Wunderground v.1.15,2013-02-23 18:38:00,
2013-02-23 12:43:00,27.5,25.2,29.99,SW,232,5.0,6.0,91,0.00,,,0.00,Wunderground v.1.15,2013-02-23 18:43:00,
2013-02-23 12:49:00,27.9,25.6,29.99,SW,235,5.0,7.0,91,0.00,,,0.00,Wunderground v.1.15,2013-02-23 18:49:00,
2013-02-23 12:55:00,28.0,25.7,29.99,WSW,248,7.0,8.0,91,0.00,,,0.00,Wunderground v.1.15,2013-02-23 18:55:00,
2013-02-23 13:01:00,28.4,26.0,29.98,SW,219,9.0,10.0,91,0.00,,,0.00,weatherlink.com 1.10,2013-02-23 19:01:00,
2013-02-23 13:06:00,28.5,26.2,29.98,SW,216,7.0,8.0,91,0.00,,,0.01,Wunderground v.1.15,2013-02-23 19:06:00,
2013-02-23 13:12:00,28.6,26.3,29.98,SW,229,7.0,7.0,91,0.00,,,0.01,Wunderground v.1.15,2013-02-23 19:12:00,
2013-02-23 13:18:00,28.8,26.5,29.97,SW,235,7.0,9.0,91,0.00,,,0.01,Wunderground v.1.15,2013-02-23 19:18:00,
2013-02-23 13:24:00,29.1,27.1,29.97,WSW,244,6.0,8.0,92,0.00,,,0.01,Wunderground v.1.15,2013-02-23 19:24:00,
2013-02-23 13:30:00,29.5,28.0,29.98,SW,232,5.0,8.0,92,0.01,,,0.01,weatherlink.com 1.10,2013-02-23 19:30:00,
2013-02-23 13:35:00,29.8,27.8,29.97,WSW,240,6.0,7.0,92,0.00,,,0.01,Wunderground v.1.15,2013-02-23 19:35:00,
2013-02-23 13:41:00,30.0,28.0,29.97,WSW,239,7.0,9.0,92,0.00,,,0.01,Wunderground v.1.15,2013-02-23 19:41:00,
2013-02-23 13:47:00,30.3,28.3,29.97,SW,233,8.0,10.0,92,0.00,,,0.01,Wunderground v.1.15,2013-02-23 19:47:00,
2013-02-23 13:52:00,30.5,28.5,29.97,SW,217,9.0,9.0,92,0.00,,,0.01,Wunderground v.1.15,2013-02-23 19:52:00,
2013-02-23 13:57:00,30.7,28.7,29.97,SW,232,9.0,11.0,92,0.00,,,0.01,Wunderground v.1.15,2013-02-23 19:57:00,
2013-02-23 14:03:00,30.7,29.0,29.96,SW,226,8.0,15.0,92,0.01,,,0.01,weatherlink.com 1.10,2013-02-23 20:03:00,
2013-02-23 14:08:00,30.8,28.8,29.96,SW,217,10.0,12.0,92,0.00,,,0.01,Wunderground v.1.15,2013-02-23 20:08:00,
2013-02-23 14:14:00,30.6,28.6,29.96,SW,214,12.0,15.0,92,0.00,,,0.01,Wunderground v.1.15,2013-02-23 20:14:00,
2013-02-23 14:20:00,30.5,28.5,29.96,WSW,244,12.0,12.0,92,0.00,,,0.01,Wunderground v.1.15,2013-02-23 20:20:00,
2013-02-23 14:26:00,30.4,28.4,29.96,WSW,248,11.0,12.0,92,0.00,,,0.01,Wunderground v.1.15,2013-02-23 20:26:00,
2013-02-23 14:32:00,30.6,29.0,29.95,WSW,246,11.0,14.0,92,0.00,,,0.01,weatherlink.com 1.10,2013-02-23 20:32:00,
2013-02-23 14:37:00,30.7,28.7,29.95,SW,220,10.0,12.0,92,0.00,,,0.01,Wunderground v.1.15,2013-02-23 20:37:00,
2013-02-23 14:42:00,30.8,28.8,29.95,WSW,237,11.0,14.0,92,0.00,,,0.01,Wunderground v.1.15,2013-02-23 20:42:00,
2013-02-23 14:48:00,31.0,28.9,29.95,WSW,237,11.0,14.0,92,0.00,,,0.01,Wunderground v.1.15,2013-02-23 20:48:00,
2013-02-23 14:53:00,31.0,28.9,29.95,WSW,249,11.0,13.0,92,0.00,,,0.01,Wunderground v.1.15,2013-02-23 20:53:00,
2013-02-23 14:58:00,31.2,29.1,29.95,SW,236,11.0,13.0,92,0.00,,,0.01,Wunderground v.1.15,2013-02-23 20:58:00,
2013-02-23 15:04:00,31.3,29.2,29.95,SW,226,10.0,11.0,92,0.00,,,0.01,Wunderground v.1.15,2013-02-23 21:04:00,
2013-02-23 15:09:00,31.4,29.3,29.94,SW,232,9.0,11.0,92,0.00,,,0.01,Wunderground v.1.15,2013-02-23 21:09:00,
2013-02-23 15:14:00,31.5,29.4,29.94,WSW,242,9.0,12.0,92,0.00,,,0.01,Wunderground v.1.15,2013-02-23 21:14:00,
2013-02-23 15:19:00,31.5,29.4,29.94,WSW,237,10.0,13.0,92,0.00,,,0.01,Wunderground v.1.15,2013-02-23 21:19:00,
2013-02-23 15:24:00,31.5,29.4,29.94,WSW,241,11.0,11.0,92,0.00,,,0.01,Wunderground v.1.15,2013-02-23 21:24:00,
2013-02-23 15:30:00,31.6,29.5,29.94,SW,233,10.0,13.0,92,0.00,,,0.01,Wunderground v.1.15,2013-02-23 21:30:00,
2013-02-23 15:36:00,31.7,29.6,29.94,SW,227,10.0,13.0,92,0.00,,,0.01,Wunderground v.1.15,2013-02-23 21:36:00,
2013-02-23 15:41:00,31.7,29.6,29.93,SSW,195,8.0,9.0,92,0.00,,,0.01,Wunderground v.1.15,2013-02-23 21:41:00,
2013-02-23 15:47:00,31.8,30.0,29.93,SW,225,10.0,13.0,92,0.00,,,0.01,weatherlink.com 1.10,2013-02-23 21:47:00,
2013-02-23 15:52:00,31.8,29.7,29.93,SW,225,10.0,12.0,92,0.00,,,0.01,Wunderground v.1.15,2013-02-23 21:52:00,
2013-02-23 15:57:00,31.7,29.6,29.93,SW,227,11.0,14.0,92,0.00,,,0.01,Wunderground v.1.15,2013-02-23 21:57:00,
2013-02-23 16:02:00,31.8,29.7,29.93,SW,229,10.0,11.0,92,0.00,,,0.01,Wunderground v.1.15,2013-02-23 22:02:00,
2013-02-23 16:08:00,31.9,29.8,29.93,WSW,238,9.0,11.0,92,0.00,,,0.01,Wunderground v.1.15,2013-02-23 22:08:00,
2013-02-23 16:14:00,31.9,29.8,29.93,SW,232,9.0,9.0,92,0.00,,,0.01,Wunderground v.1.15,2013-02-23 22:14:00,
2013-02-23 16:20:00,32.0,29.9,29.93,SW,218,7.0,7.0,92,0.00,,,0.01,Wunderground v.1.15,2013-02-23 22:20:00,
2013-02-23 16:26:00,32.1,30.0,29.93,SW,229,7.0,8.0,92,0.00,,,0.01,Wunderground v.1.15,2013-02-23 22:26:00,
2013-02-23 16:32:00,32.1,30.0,29.93,SW,219,6.0,11.0,92,0.00,,,0.01,weatherlink.com 1.10,2013-02-23 22:32:00,
2013-02-23 16:37:00,32.2,30.1,29.93,SW,217,7.0,10.0,92,0.00,,,0.01,Wunderground v.1.15,2013-02-23 22:37:00,
2013-02-23 16:42:00,32.3,30.2,29.93,SSW,204,5.0,8.0,92,0.00,,,0.01,Wunderground v.1.15,2013-02-23 22:42:00,
2013-02-23 16:48:00,32.4,30.6,29.92,SSW,192,5.0,8.0,93,0.00,,,0.01,Wunderground v.1.15,2013-02-23 22:48:00,
2013-02-23 16:54:00,32.4,30.6,29.92,SSW,196,5.0,9.0,93,0.00,,,0.01,Wunderground v.1.15,2013-02-23 22:54:00,
2013-02-23 16:59:00,32.5,30.4,29.92,SSW,200,6.0,10.0,92,0.00,,,0.01,Wunderground v.1.15,2013-02-23 22:59:00,
2013-02-23 17:04:00,32.5,30.4,29.92,SSW,206,6.0,7.0,92,0.00,,,0.01,Wunderground v.1.15,2013-02-23 23:04:00,
2013-02-23 17:10:00,32.5,30.4,29.92,SSW,211,6.0,7.0,92,0.00,,,0.01,Wunderground v.1.15,2013-02-23 23:10:00,
2013-02-23 17:15:00,32.5,30.4,29.92,SW,215,6.0,8.0,92,0.00,,,0.01,Wunderground v.1.15,2013-02-23 23:15:00,
2013-02-23 17:20:00,32.4,30.3,29.92,SSW,209,7.0,7.0,92,0.00,,,0.01,Wunderground v.1.15,2013-02-23 23:20:00,
2013-02-23 17:25:00,32.4,30.3,29.92,SSW,201,6.0,7.0,92,0.00,,,0.01,Wunderground v.1.15,2013-02-23 23:25:00,
2013-02-23 17:30:00,32.4,30.3,29.92,SSW,193,5.0,5.0,92,0.00,,,0.01,Wunderground v.1.15,2013-02-23 23:30:00,
2013-02-23 17:36:00,32.3,30.5,29.92,SSW,201,4.0,5.0,93,0.00,,,0.01,Wunderground v.1.15,2013-02-23 23:36:00,
2013-02-23 17:42:00,32.3,30.2,29.92,South,178,4.0,6.0,92,0.00,,,0.01,Wunderground v.1.15,2013-02-23 23:42:00,
2013-02-23 17:48:00,32.1,30.0,29.92,SSW,199,5.0,7.0,92,0.00,,,0.01,Wunderground v.1.15,2013-02-23 23:48:00,
2013-02-23 17:53:00,32.0,29.9,29.92,SSW,194,6.0,6.0,92,0.00,,,0.01,Wunderground v.1.15,2013-02-23 23:53:00,
2013-02-23 17:59:00,31.8,29.7,29.92,SSW,192,6.0,9.0,92,0.00,,,0.01,Wunderground v.1.15,2013-02-23 23:59:00,
2013-02-23 18:04:00,31.5,29.4,29.92,SSW,203,6.0,6.0,92,0.00,,,0.01,Wunderground v.1.15,2013-02-24 00:04:00,
2013-02-23 18:10:00,31.4,29.3,29.92,SSW,200,6.0,6.0,92,0.00,,,0.01,Wunderground v.1.15,2013-02-24 00:10:00,
2013-02-23 18:20:00,31.2,29.0,29.92,SSW,192,6.0,8.0,92,0.00,,,0.01,weatherlink.com 1.10,2013-02-24 00:20:00,
2013-02-23 18:25:00,31.0,28.9,29.93,SSW,210,5.0,7.0,92,0.00,,,0.01,Wunderground v.1.15,2013-02-24 00:25:00,
2013-02-23 18:30:00,30.9,28.9,29.93,SSW,209,6.0,7.0,92,0.00,,,0.01,Wunderground v.1.15,2013-02-24 00:30:00,
2013-02-23 18:36:00,30.8,28.8,29.94,SSW,210,6.0,7.0,92,0.00,,,0.01,Wunderground v.1.15,2013-02-24 00:36:00,
2013-02-23 18:42:00,30.6,28.6,29.94,SSW,203,5.0,5.0,92,0.00,,,0.01,Wunderground v.1.15,2013-02-24 00:42:00,
2013-02-23 18:48:00,30.3,28.0,29.94,SSW,210,5.0,7.0,91,0.00,,,0.01,weatherlink.com 1.10,2013-02-24 00:48:00,
2013-02-23 18:53:00,30.1,27.8,29.94,South,183,5.0,6.0,91,0.00,,,0.01,Wunderground v.1.15,2013-02-24 00:53:00,
2013-02-23 18:58:00,30.0,27.7,29.94,SSW,198,5.0,6.0,91,0.00,,,0.01,Wunderground v.1.15,2013-02-24 00:58:00,
2013-02-23 19:04:00,29.9,27.6,29.94,SSW,192,4.0,5.0,91,0.00,,,0.01,Wunderground v.1.15,2013-02-24 01:04:00,
2013-02-23 19:10:00,29.9,27.6,29.94,SSW,205,4.0,5.0,91,0.00,,,0.01,Wunderground v.1.15,2013-02-24 01:10:00,
2013-02-23 19:15:00,29.8,27.5,29.94,SSW,198,4.0,6.0,91,0.00,,,0.01,Wunderground v.1.15,2013-02-24 01:15:00,
2013-02-23 19:21:00,29.8,27.5,29.94,SSW,203,5.0,7.0,91,0.00,,,0.01,Wunderground v.1.15,2013-02-24 01:21:00,
2013-02-23 19:27:00,29.9,27.6,29.94,SSW,211,6.0,7.0,91,0.00,,,0.01,Wunderground v.1.15,2013-02-24 01:27:00,
2013-02-23 19:33:00,29.9,27.3,29.94,SSW,208,6.0,7.0,90,0.00,,,0.01,Wunderground v.1.15,2013-02-24 01:33:00,
2013-02-23 19:39:00,29.8,27.2,29.94,SW,217,7.0,8.0,90,0.00,,,0.01,Wunderground v.1.15,2013-02-24 01:39:00,
2013-02-23 19:45:00,29.7,27.1,29.95,SW,215,6.0,8.0,90,0.00,,,0.01,Wunderground v.1.15,2013-02-24 01:45:00,
2013-02-23 19:50:00,29.6,27.0,29.95,SSW,209,6.0,6.0,90,0.00,,,0.01,Wunderground v.1.15,2013-02-24 01:50:00,
2013-02-23 19:56:00,29.5,26.9,29.95,SW,215,6.0,7.0,90,0.00,,,0.01,Wunderground v.1.15,2013-02-24 01:56:00,
2013-02-23 20:02:00,29.3,27.0,29.95,SW,217,4.0,8.0,90,0.00,,,0.01,weatherlink.com 1.10,2013-02-24 02:02:00,
2013-02-23 20:08:00,29.1,26.3,29.95,SW,222,5.0,7.0,89,0.00,,,0.01,Wunderground v.1.15,2013-02-24 02:08:00,
2013-02-23 20:13:00,29.0,26.2,29.95,SSW,211,5.0,6.0,89,0.00,,,0.01,Wunderground v.1.15,2013-02-24 02:13:00,
2013-02-23 20:19:00,28.9,26.3,29.95,SW,218,5.0,7.0,90,0.00,,,0.01,Wunderground v.1.15,2013-02-24 02:19:00,
2013-02-23 20:26:00,28.8,26.0,29.95,SSW,205,4.0,6.0,89,0.00,,,0.01,Wunderground v.1.15,2013-02-24 02:26:00,
2013-02-23 20:32:00,28.8,26.0,29.95,SSW,205,3.0,7.0,89,0.00,,,0.01,weatherlink.com 1.10,2013-02-24 02:32:00,
2013-02-23 20:37:00,28.8,26.0,29.95,SSW,209,4.0,5.0,89,0.00,,,0.01,Wunderground v.1.15,2013-02-24 02:37:00,
2013-02-23 20:43:00,28.8,26.0,29.96,SSW,199,2.0,4.0,89,0.00,,,0.01,Wunderground v.1.15,2013-02-24 02:43:00,
2013-02-23 20:48:00,28.7,25.9,29.96,South,186,3.0,5.0,89,0.00,,,0.01,Wunderground v.1.15,2013-02-24 02:48:00,
2013-02-23 20:54:00,28.6,25.8,29.96,SSW,201,3.0,4.0,89,0.00,,,0.01,Wunderground v.1.15,2013-02-24 02:54:00,
2013-02-23 21:00:00,28.4,25.6,29.96,South,188,3.0,4.0,89,0.00,,,0.01,Wunderground v.1.15,2013-02-24 03:00:00,
2013-02-23 21:06:00,28.4,25.6,29.96,South,189,3.0,4.0,89,0.00,,,0.01,Wunderground v.1.15,2013-02-24 03:06:00,
2013-02-23 21:11:00,28.4,25.6,29.96,South,190,2.0,2.0,89,0.00,,,0.01,Wunderground v.1.15,2013-02-24 03:11:00,
2013-02-23 21:17:00,28.5,26.0,29.96,SW,214,1.0,6.0,89,0.00,,,0.01,weatherlink.com 1.10,2013-02-24 03:17:00,
2013-02-23 21:23:00,28.2,25.4,29.96,SW,225,2.0,6.0,89,0.00,,,0.01,Wunderground v.1.15,2013-02-24 03:23:00,
2013-02-23 21:28:00,27.8,25.0,29.96,SW,233,3.0,6.0,89,0.00,,,0.01,Wunderground v.1.15,2013-02-24 03:28:00,
2013-02-23 21:34:00,27.4,24.6,29.96,SSW,211,4.0,4.0,89,0.00,,,0.01,Wunderground v.1.15,2013-02-24 03:34:00,
2013-02-23 21:40:00,27.4,24.6,29.96,SSW,201,4.0,5.0,89,0.00,,,0.01,Wunderground v.1.15,2013-02-24 03:40:00,
2013-02-23 21:46:00,27.6,24.8,29.96,SW,227,4.0,6.0,89,0.00,,,0.01,Wunderground v.1.15,2013-02-24 03:46:00,
2013-02-23 21:51:00,27.7,24.9,29.96,SW,232,5.0,8.0,89,0.00,,,0.01,Wunderground v.1.15,2013-02-24 03:51:00,
2013-02-23 21:57:00,27.7,24.9,29.97,SW,223,6.0,8.0,89,0.00,,,0.01,Wunderground v.1.15,2013-02-24 03:57:00,
2013-02-23 22:03:00,27.8,25.0,29.97,SW,230,7.0,11.0,89,0.00,,,0.01,weatherlink.com 1.10,2013-02-24 04:03:00,
2013-02-23 22:08:00,27.8,25.0,29.97,SW,218,7.0,9.0,89,0.00,,,0.01,Wunderground v.1.15,2013-02-24 04:08:00,
2013-02-23 22:14:00,27.7,24.9,29.97,SSW,211,6.0,7.0,89,0.00,,,0.01,Wunderground v.1.15,2013-02-24 04:14:00,
2013-02-23 22:19:00,27.7,24.9,29.97,SSW,209,6.0,8.0,89,0.00,,,0.01,Wunderground v.1.15,2013-02-24 04:19:00,
2013-02-23 22:25:00,27.8,25.0,29.97,SSW,210,5.0,6.0,89,0.00,,,0.01,Wunderground v.1.15,2013-02-24 04:25:00,
2013-02-23 22:31:00,27.5,24.7,29.97,SW,217,4.0,5.0,89,0.00,,,0.01,Wunderground v.1.15,2013-02-24 04:31:00,
2013-02-23 22:36:00,27.3,24.2,29.97,SW,227,4.0,7.0,88,0.00,,,0.01,Wunderground v.1.15,2013-02-24 04:36:00,
2013-02-23 22:42:00,27.3,24.5,29.97,WSW,237,5.0,5.0,89,0.00,,,0.01,Wunderground v.1.15,2013-02-24 04:42:00,
2013-02-23 22:48:00,27.2,24.4,29.97,SW,214,4.0,5.0,89,0.00,,,0.01,Wunderground v.1.15,2013-02-24 04:48:00,
2013-02-23 22:54:00,27.1,24.3,29.97,SW,214,3.0,3.0,89,0.00,,,0.01,Wunderground v.1.15,2013-02-24 04:54:00,
2013-02-23 23:00:00,27.1,24.3,29.97,SW,218,3.0,3.0,89,0.00,,,0.01,Wunderground v.1.15,2013-02-24 05:00:00,
2013-02-23 23:01:00,27.1,24.3,29.97,SW,218,3.0,4.0,89,0.00,,,0.01,Wunderground v.1.15,2013-02-24 05:01:00,
2013-02-23 23:03:00,27.1,24.0,29.97,SW,219,3.0,5.0,89,0.00,,,0.01,weatherlink.com 1.10,2013-02-24 05:03:00,
2013-02-23 23:06:00,27.1,24.3,29.97,SW,223,3.0,4.0,89,0.00,,,0.01,Wunderground v.1.15,2013-02-24 05:06:00,
2013-02-23 23:14:00,27.0,24.2,29.97,SW,225,3.0,3.0,89,0.00,,,0.01,Wunderground v.1.15,2013-02-24 05:14:00,
2013-02-23 23:20:00,26.7,23.9,29.97,SW,224,2.0,2.0,89,0.00,,,0.01,Wunderground v.1.15,2013-02-24 05:20:00,
2013-02-23 23:26:00,26.5,23.7,29.97,SW,222,3.0,5.0,89,0.00,,,0.01,Wunderground v.1.15,2013-02-24 05:26:00,
2013-02-23 23:56:00,25.1,22.0,29.98,SW,230,5.0,6.0,89,0.00,,,0.01,weatherlink.com 1.10,2013-02-24 05:56:00,